| time (UTC) | temp C | wind direction | speed KPH | gust KPH | rain 1hr cm | rain 24hr cm | rain mn cm | humidity % | barometer mb |
| 20260901143654 | 22 | 346 | 4.8 | 20.9 | 0.00 | 0.00 | 0.00 | 59 | 1018.1 |
| 20260901143018 | 22 | 360 | 1.6 | 12.9 | 0.00 | 0.00 | 0.00 | 59 | 1017.6 |
| 20260901142635 | 22 | 351 | 4.8 | 17.7 | 0.00 | 0.00 | 0.00 | 59 | 1018.0 |
| 20260901142126 | 22 | 295 | 8.0 | 20.9 | 0.00 | 0.00 | 0.00 | 59 | 1017.9 |
| 20260901141612 | 22 | 325 | 6.4 | 20.9 | 0.00 | 0.00 | 0.00 | 58 | 1017.9 |
| 20260901141548 | 22 | 315 | 8.0 | 20.9 | 0.00 | 0.00 | 0.00 | 58 | 1017.5 |
| 20260901141102 | 22 | 323 | 3.2 | 17.7 | 0.00 | 0.00 | 0.00 | 60 | 1018.0 |
| 20260901140559 | 22 | 303 | 3.2 | 17.7 | 0.00 | 0.00 | 0.00 | 59 | 1018.0 |
| 20260901140111 | 22 | 355 | 3.2 | 11.3 | 0.00 | 0.00 | 0.00 | 60 | 1018.0 |
| 20260901140034 | 22 | 355 | 3.2 | 9.7 | 0.00 | 0.00 | 0.00 | 60 | 1017.6 |
| 20260901135540 | 22 | 266 | 3.2 | 11.3 | 0.00 | 0.00 | 0.00 | 60 | 1018.0 |
| 20260901135039 | 22 | 331 | 4.8 | 12.9 | 0.00 | 0.00 | 0.00 | 57 | 1018.0 |
| 20260901134606 | 22 | 317 | 1.6 | 12.9 | 0.00 | 0.00 | 0.00 | 59 | 1017.6 |
| 20260901134529 | 22 | 319 | 4.8 | 12.9 | 0.00 | 0.00 | 0.00 | 58 | 1018.0 |
| 20260901134010 | 22 | 303 | 4.8 | 16.1 | 0.00 | 0.00 | 0.00 | 57 | 1017.9 |
| 20260901133500 | 22 | 261 | 4.8 | 16.1 | 0.00 | 0.00 | 0.00 | 56 | 1018.0 |
| 20260901133128 | 22 | 317 | 3.2 | 12.9 | 0.00 | 0.00 | 0.00 | 56 | 1017.6 |
| 20260901132947 | 23 | 301 | 4.8 | 12.9 | 0.00 | 0.00 | 0.00 | 56 | 1018.0 |
| 20260901132435 | 22 | 296 | 3.2 | 11.3 | 0.00 | 0.00 | 0.00 | 58 | 1017.9 |
| 20260901131924 | 22 | 239 | 4.8 | 14.5 | 0.00 | 0.00 | 0.00 | 58 | 1017.9 |
| 20260901131551 | 22 | 321 | 3.2 | 16.1 | 0.00 | 0.00 | 0.00 | 58 | 1017.5 |
| 20260901130911 | 22 | 333 | 8.0 | 17.7 | 0.00 | 0.00 | 0.00 | 56 | 1018.0 |
| 20260901130344 | 22 | 240 | 4.8 | 16.1 | 0.00 | 0.00 | 0.00 | 57 | 1018.0 |
| 20260901130013 | 22 | 319 | 6.4 | 12.9 | 0.00 | 0.00 | 0.00 | 55 | 1017.6 |
| 20260901125315 | 22 | 245 | 3.2 | 11.3 | 0.00 | 0.00 | 0.00 | 58 | 1018.0 |
| 20260901124803 | 22 | 323 | 3.2 | 19.3 | 0.00 | 0.00 | 0.00 | 59 | 1018.0 |
| 20260901124534 | 22 | 269 | 1.6 | 19.3 | 0.00 | 0.00 | 0.00 | 58 | 1017.7 |
| 20260901124249 | 22 | 319 | 4.8 | 19.3 | 0.00 | 0.00 | 0.00 | 57 | 1018.1 |
| 20260901123735 | 22 | 319 | 6.4 | 19.3 | 0.00 | 0.00 | 0.00 | 57 | 1018.0 |
| 20260901123056 | 22 | 355 | 6.4 | 20.9 | 0.00 | 0.00 | 0.00 | 55 | 1017.6 |
| 20260901122708 | 23 | 304 | 4.8 | 19.3 | 0.00 | 0.00 | 0.00 | 55 | 1018.0 |
| 20260901122155 | 23 | 294 | 3.2 | 16.1 | 0.00 | 0.00 | 0.00 | 56 | 1018.0 |
| 20260901121517 | 22 | 258 | 3.2 | 16.1 | 0.00 | 0.00 | 0.00 | 57 | 1017.6 |
| 20260901121127 | 22 | 306 | 4.8 | 16.1 | 0.00 | 0.00 | 0.00 | 56 | 1018.0 |
| 20260901120112 | 22 | 245 | 4.8 | 17.7 | 0.00 | 0.00 | 0.00 | 57 | 1018.1 |
| 20260901120034 | 22 | 244 | 9.7 | 17.7 | 0.00 | 0.00 | 0.00 | 57 | 1017.7 |
| 20260901115545 | 22 | 316 | 6.4 | 16.1 | 0.00 | 0.00 | 0.00 | 60 | 1018.1 |
| 20260901115033 | 22 | 238 | 6.4 | 16.1 | 0.00 | 0.00 | 0.00 | 60 | 1018.1 |
| 20260901114604 | 21 | 227 | 3.2 | 14.5 | 0.00 | 0.00 | 0.00 | 61 | 1017.7 |
| 20260901114523 | 21 | 241 | 6.4 | 16.1 | 0.00 | 0.00 | 0.00 | 64 | 1018.1 |
| 20260901114001 | 21 | 227 | 6.4 | 16.1 | 0.00 | 0.00 | 0.00 | 60 | 1018.1 |
| 20260901113439 | 21 | 253 | 6.4 | 12.9 | 0.00 | 0.00 | 0.00 | 60 | 1018.1 |
| 20260901113000 | 21 | 225 | 6.4 | 11.3 | 0.00 | 0.00 | 0.00 | 60 | 1017.7 |
| 20260901112413 | 21 | 247 | 4.8 | 11.3 | 0.00 | 0.00 | 0.00 | 61 | 1018.1 |
| 20260901111914 | 21 | 227 | 4.8 | 11.3 | 0.00 | 0.00 | 0.00 | 59 | 1018.1 |
| 20260901111542 | 21 | 227 | 4.8 | 11.3 | 0.00 | 0.00 | 0.00 | 58 | 1017.7 |
| 20260901111358 | 22 | 244 | 3.2 | 11.3 | 0.00 | 0.00 | 0.00 | 59 | 1018.1 |
| 20260901110844 | 22 | 248 | 4.8 | 17.7 | 0.00 | 0.00 | 0.00 | 62 | 1018.0 |
| 20260901110327 | 21 | 241 | 4.8 | 17.7 | 0.00 | 0.00 | 0.00 | 59 | 1018.0 |
| 20260901110058 | 21 | 226 | 1.6 | 12.9 | 0.00 | 0.00 | 0.00 | 61 | 1017.7 |
| 20260901105814 | 22 | 238 | 4.8 | 16.1 | 0.00 | 0.00 | 0.00 | 59 | 1018.0 |
| 20260901105300 | 22 | 243 | 3.2 | 16.1 | 0.00 | 0.00 | 0.00 | 57 | 1018.1 |
| 20260901104802 | 22 | 263 | 3.2 | 14.5 | 0.00 | 0.00 | 0.00 | 59 | 1018.0 |
| 20260901104619 | 22 | 308 | 1.6 | 14.5 | 0.00 | 0.00 | 0.00 | 60 | 1017.6 |
| 20260901103718 | 22 | 252 | 6.4 | 16.1 | 0.00 | 0.00 | 0.00 | 57 | 1018.0 |
| 20260901103201 | 22 | 276 | 6.4 | 17.7 | 0.00 | 0.00 | 0.00 | 59 | 1018.0 |
| 20260901103034 | 21 | 313 | 3.2 | 17.7 | 0.00 | 0.00 | 0.00 | 60 | 1017.7 |
| 20260901102648 | 22 | 246 | 9.7 | 16.1 | 0.00 | 0.00 | 0.00 | 62 | 1018.1 |
| 20260901102138 | 21 | 203 | 8.0 | 17.7 | 0.00 | 0.00 | 0.00 | 61 | 1018.0 |
| 20260901101621 | 21 | 225 | 6.4 | 14.5 | 0.00 | 0.00 | 0.00 | 63 | 1018.0 |
| 20260901101607 | 21 | 222 | 4.8 | 14.5 | 0.00 | 0.00 | 0.00 | 63 | 1017.6 |
| 20260901101107 | 21 | 242 | 8.0 | 16.1 | 0.00 | 0.00 | 0.00 | 62 | 1018.0 |
| 20260901100551 | 21 | 221 | 6.4 | 16.1 | 0.00 | 0.00 | 0.00 | 62 | 1017.9 |
| 20260901100040 | 21 | 252 | 6.4 | 16.1 | 0.00 | 0.00 | 0.00 | 62 | 1018.0 |
| 20260901100016 | 21 | 253 | 4.8 | 14.5 | 0.00 | 0.00 | 0.00 | 62 | 1017.6 |
| 20260901095527 | 21 | 236 | 8.0 | 16.1 | 0.00 | 0.00 | 0.00 | 64 | 1018.0 |
| 20260901094535 | 21 | 208 | 3.2 | 9.7 | 0.00 | 0.00 | 0.00 | 65 | 1017.6 |
| 20260901094458 | 21 | 236 | 3.2 | 12.9 | 0.00 | 0.00 | 0.00 | 66 | 1018.0 |
| 20260901093443 | 20 | 232 | 3.2 | 17.7 | 0.00 | 0.00 | 0.00 | 66 | 1018.0 |
| 20260901093055 | 20 | 229 | 1.6 | 17.7 | 0.00 | 0.00 | 0.00 | 67 | 1017.6 |
| 20260901092914 | 20 | 306 | 4.8 | 17.7 | 0.00 | 0.00 | 0.00 | 67 | 1018.0 |
| 20260901092402 | 21 | 274 | 4.8 | 12.9 | 0.00 | 0.00 | 0.00 | 65 | 1018.0 |
| 20260901091845 | 21 | 331 | 4.8 | 12.9 | 0.00 | 0.00 | 0.00 | 63 | 1017.9 |
| 20260901091614 | 21 | 296 | 4.8 | 12.9 | 0.00 | 0.00 | 0.00 | 64 | 1017.6 |
| 20260901091333 | 21 | 339 | 6.4 | 17.7 | 0.00 | 0.00 | 0.00 | 67 | 1017.9 |
| 20260901090819 | 21 | 242 | 8.0 | 17.7 | 0.00 | 0.00 | 0.00 | 63 | 1017.9 |
| 20260901090028 | 21 | 306 | 3.2 | 14.5 | 0.00 | 0.00 | 0.00 | 64 | 1017.5 |
| 20260901085747 | 21 | 302 | 4.8 | 19.3 | 0.00 | 0.00 | 0.00 | 64 | 1017.9 |
| 20260901085232 | 21 | 209 | 6.4 | 19.3 | 0.00 | 0.00 | 0.00 | 64 | 1018.0 |
| 20260901084717 | 21 | 246 | 6.4 | 20.9 | 0.00 | 0.00 | 0.00 | 64 | 1018.1 |
| 20260901084547 | 21 | 246 | 4.8 | 20.9 | 0.00 | 0.00 | 0.00 | 66 | 1017.7 |
| 20260901084159 | 21 | 245 | 4.8 | 20.9 | 0.00 | 0.00 | 0.00 | 64 | 1018.1 |
| 20260901083656 | 21 | 269 | 6.4 | 20.9 | 0.00 | 0.00 | 0.00 | 64 | 1018.1 |
| 20260901083141 | 21 | 252 | 4.8 | 20.9 | 0.00 | 0.00 | 0.00 | 64 | 1018.1 |
| 20260901083015 | 21 | 244 | 8.0 | 20.9 | 0.00 | 0.00 | 0.00 | 64 | 1017.6 |
| 20260901082632 | 21 | 248 | 3.2 | 14.5 | 0.00 | 0.00 | 0.00 | 65 | 1018.0 |
| 20260901082128 | 21 | 309 | 4.8 | 14.5 | 0.00 | 0.00 | 0.00 | 65 | 1018.0 |
| 20260901081656 | 21 | 333 | 3.2 | 14.5 | 0.00 | 0.00 | 0.00 | 66 | 1017.5 |
| 20260901081115 | 21 | 326 | 4.8 | 19.3 | 0.00 | 0.00 | 0.00 | 66 | 1017.9 |
| 20260901080608 | 20 | 279 | 6.4 | 17.7 | 0.00 | 0.00 | 0.00 | 67 | 1017.8 |
| 20260901080109 | 20 | 246 | 6.4 | 19.3 | 0.00 | 0.00 | 0.00 | 65 | 1017.7 |
| 20260901080038 | 20 | 248 | 4.8 | 19.3 | 0.00 | 0.00 | 0.00 | 65 | 1017.3 |
| 20260901075546 | 20 | 222 | 6.4 | 19.3 | 0.00 | 0.00 | 0.00 | 66 | 1017.7 |
| 20260901075038 | 20 | 334 | 4.8 | 12.9 | 0.00 | 0.00 | 0.00 | 66 | 1017.7 |
| 20260901074508 | 20 | 296 | 3.2 | 12.9 | 0.00 | 0.00 | 0.00 | 66 | 1017.3 |
| 20260901074026 | 20 | 318 | 4.8 | 11.3 | 0.00 | 0.00 | 0.00 | 66 | 1017.7 |
| 20260901073518 | 20 | 319 | 4.8 | 14.5 | 0.00 | 0.00 | 0.00 | 66 | 1017.6 |
| 20260901073156 | 20 | 296 | 4.8 | 17.7 | 0.00 | 0.00 | 0.00 | 67 | 1017.2 |
| 20260901073019 | 20 | 279 | 4.8 | 17.7 | 0.00 | 0.00 | 0.00 | 67 | 1017.4 |
| 20260901072525 | 20 | 206 | 4.8 | 14.5 | 0.00 | 0.00 | 0.00 | 69 | 1017.4 |
| 20260901072009 | 20 | 255 | 4.8 | 14.5 | 0.00 | 0.00 | 0.00 | 69 | 1017.5 |
| 20260901071539 | 19 | 316 | 3.2 | 19.3 | 0.00 | 0.00 | 0.00 | 70 | 1017.1 |
| 20260901071500 | 20 | 296 | 4.8 | 19.3 | 0.00 | 0.00 | 0.00 | 70 | 1017.4 |
| 20260901070446 | 20 | 250 | 4.8 | 12.9 | 0.00 | 0.00 | 0.00 | 73 | 1017.2 |
| 20260901070015 | 19 | 242 | 3.2 | 14.5 | 0.00 | 0.00 | 0.00 | 72 | 1016.8 |
| 20260901065424 | 19 | 241 | 3.2 | 14.5 | 0.00 | 0.00 | 0.00 | 72 | 1017.2 |
| 20260901064549 | 19 | 303 | 1.6 | 16.1 | 0.00 | 0.00 | 0.00 | 74 | 1016.7 |
| 20260901064414 | 19 | 313 | 3.2 | 16.1 | 0.00 | 0.00 | 0.00 | 74 | 1017.2 |
| 20260901063855 | 19 | 248 | 3.2 | 16.1 | 0.00 | 0.00 | 0.00 | 74 | 1017.1 |
| 20260901063348 | 18 | 235 | 4.8 | 16.1 | 0.00 | 0.00 | 0.00 | 77 | 1017.1 |
| 20260901063022 | 18 | 238 | 4.8 | 16.1 | 0.00 | 0.00 | 0.00 | 75 | 1016.6 |
| 20260901062838 | 18 | 241 | 4.8 | 16.1 | 0.00 | 0.00 | 0.00 | 75 | 1017.0 |
| 20260901062339 | 18 | 341 | 3.2 | 9.7 | 0.00 | 0.00 | 0.00 | 77 | 1016.9 |
| 20260901061812 | 18 | 355 | 3.2 | 8.0 | 0.00 | 0.00 | 0.00 | 78 | 1016.8 |
| 20260901061546 | 18 | 245 | 1.6 | 8.0 | 0.00 | 0.00 | 0.00 | 78 | 1016.3 |
| 20260901061302 | 18 | 280 | 3.2 | 12.9 | 0.00 | 0.00 | 0.00 | 78 | 1016.8 |
| 20260901060753 | 18 | 246 | 4.8 | 12.9 | 0.00 | 0.00 | 0.00 | 78 | 1016.7 |
| 20260901060240 | 17 | 243 | 6.4 | 12.9 | 0.00 | 0.00 | 0.00 | 79 | 1016.7 |
| 20260901060030 | 17 | 296 | 4.8 | 11.3 | 0.00 | 0.00 | 0.00 | 79 | 1016.2 |
| 20260901055728 | 17 | 209 | 6.4 | 12.9 | 0.00 | 0.00 | 0.00 | 79 | 1016.6 |
| 20260901055217 | 17 | 221 | 4.8 | 12.9 | 0.00 | 0.00 | 0.00 | 81 | 1016.6 |
| 20260901054704 | 17 | 248 | 3.2 | 12.9 | 0.00 | 0.00 | 0.00 | 81 | 1016.6 |
| 20260901054537 | 17 | 254 | 4.8 | 12.9 | 0.00 | 0.00 | 0.00 | 81 | 1016.2 |
| 20260901054152 | 17 | 240 | 3.2 | 11.3 | 0.00 | 0.00 | 0.00 | 84 | 1016.5 |
| 20260901053642 | 16 | 314 | 1.6 | 8.0 | 0.00 | 0.00 | 0.00 | 85 | 1016.5 |
| 20260901053133 | 16 | 315 | 1.6 | 8.0 | 0.00 | 0.00 | 0.00 | 86 | 1016.4 |
| 20260901053006 | 16 | 244 | 1.6 | 8.0 | 0.00 | 0.00 | 0.00 | 86 | 1016.0 |
| 20260901052111 | 16 | 240 | 1.6 | 4.8 | 0.00 | 0.00 | 0.00 | 87 | 1016.3 |
| 20260901051556 | 15 | 240 | 0.0 | 3.2 | 0.00 | 0.00 | 0.00 | 87 | 1016.2 |
| 20260901051532 | 15 | 240 | 0.0 | 3.2 | 0.00 | 0.00 | 0.00 | 87 | 1015.8 |
| 20260901050551 | 15 | 240 | 3.2 | 8.0 | 0.00 | 0.00 | 0.00 | 88 | 1016.0 |
| 20260901050100 | 15 | 241 | 1.6 | 8.0 | 0.00 | 0.00 | 0.00 | 89 | 1015.5 |
| 20260901050022 | 15 | 241 | 3.2 | 8.0 | 0.00 | 0.00 | 0.00 | 89 | 1015.9 |
| 20260901045510 | 15 | 242 | 1.6 | 6.4 | 0.00 | 0.00 | 0.00 | 90 | 1015.9 |
| 20260901044957 | 14 | 236 | 0.0 | 4.8 | 0.00 | 0.00 | 0.00 | 90 | 1015.8 |
| 20260901044535 | 14 | 236 | 0.0 | 1.6 | 0.00 | 0.00 | 0.00 | 90 | 1015.4 |
| 20260901044455 | 14 | 236 | 0.0 | 1.6 | 0.00 | 0.00 | 0.00 | 90 | 1015.7 |
| 20260901043938 | 14 | 236 | 0.0 | 1.6 | 0.00 | 0.00 | 0.00 | 90 | 1015.7 |
| 20260901043052 | 14 | 238 | 0.0 | 3.2 | 0.00 | 0.00 | 0.00 | 90 | 1015.1 |
| 20260901042912 | 14 | 238 | 0.0 | 3.2 | 0.00 | 0.00 | 0.00 | 90 | 1015.6 |
| 20260901042358 | 14 | 237 | 1.6 | 6.4 | 0.00 | 0.00 | 0.00 | 91 | 1015.6 |
| 20260901041838 | 14 | 237 | 1.6 | 6.4 | 0.00 | 0.00 | 0.00 | 91 | 1015.5 |
| 20260901041622 | 14 | 244 | 0.0 | 6.4 | 0.00 | 0.00 | 0.00 | 92 | 1015.0 |
| 20260901041318 | 14 | 244 | 3.2 | 6.4 | 0.00 | 0.00 | 0.00 | 93 | 1015.5 |
| 20260901040820 | 14 | 245 | 3.2 | 6.4 | 0.00 | 0.00 | 0.00 | 94 | 1015.5 |
| 20260901040256 | 13 | 246 | 3.2 | 6.4 | 0.00 | 0.00 | 0.00 | 94 | 1015.4 |
| 20260901040036 | 13 | 246 | 3.2 | 6.4 | 0.00 | 0.00 | 0.00 | 94 | 1014.9 |
| 20260901035745 | 13 | 246 | 0.0 | 4.8 | 0.00 | 0.00 | 0.00 | 93 | 1015.4 |
| 20260901035244 | 13 | 246 | 0.0 | 0.0 | 0.00 | 0.00 | 0.00 | 93 | 1015.4 |
| 20260901034731 | 13 | 246 | 0.0 | 0.0 | 0.00 | 0.00 | 0.00 | 92 | 1015.3 |
| 20260901034606 | 13 | 246 | 0.0 | 1.6 | 0.00 | 0.00 | 0.00 | 92 | 1014.8 |
| 20260901034218 | 13 | 246 | 0.0 | 1.6 | 0.00 | 0.00 | 0.00 | 92 | 1015.2 |
| 20260901033703 | 13 | 246 | 0.0 | 0.0 | 0.00 | 0.00 | 0.00 | 92 | 1015.2 |
| 20260901033151 | 13 | 246 | 0.0 | 1.6 | 0.00 | 0.00 | 0.00 | 92 | 1015.1 |
| 20260901033022 | 13 | 246 | 0.0 | 1.6 | 0.00 | 0.00 | 0.00 | 92 | 1014.7 |
| 20260901032637 | 13 | 246 | 0.0 | 1.6 | 0.00 | 0.00 | 0.00 | 92 | 1015.0 |
| 20260901032120 | 13 | 246 | 0.0 | 1.6 | 0.00 | 0.00 | 0.00 | 92 | 1015.0 |
| 20260901031609 | 14 | 246 | 0.0 | 0.0 | 0.00 | 0.00 | 0.00 | 91 | 1015.0 |
| 20260901031542 | 13 | 246 | 0.0 | 0.0 | 0.00 | 0.00 | 0.00 | 91 | 1014.6 |
| 20260901031052 | 14 | 246 | 0.0 | 1.6 | 0.00 | 0.00 | 0.00 | 92 | 1015.1 |
| 20260901030541 | 14 | 246 | 0.0 | 3.2 | 0.00 | 0.00 | 0.00 | 92 | 1015.1 |
| 20260901030110 | 14 | 246 | 0.0 | 4.8 | 0.00 | 0.00 | 0.00 | 93 | 1014.6 |
| 20260901030025 | 14 | 245 | 1.6 | 4.8 | 0.00 | 0.00 | 0.00 | 93 | 1015.0 |
| 20260901024518 | 13 | 249 | 1.6 | 4.8 | 0.00 | 0.00 | 0.00 | 94 | 1014.5 |
| 20260901024441 | 14 | 249 | 3.2 | 4.8 | 0.00 | 0.00 | 0.00 | 94 | 1014.9 |
| 20260901023925 | 14 | 249 | 1.6 | 4.8 | 0.00 | 0.00 | 0.00 | 94 | 1014.9 |
| 20260901023028 | 13 | 249 | 0.0 | 4.8 | 0.00 | 0.00 | 0.00 | 93 | 1014.5 |
| 20260901022846 | 13 | 249 | 0.0 | 0.0 | 0.00 | 0.00 | 0.00 | 93 | 1014.9 |
| 20260901021817 | 14 | 249 | 0.0 | 0.0 | 0.00 | 0.00 | 0.00 | 92 | 1014.9 |
| 20260901021546 | 13 | 249 | 0.0 | 0.0 | 0.00 | 0.00 | 0.00 | 92 | 1014.5 |
| 20260901021318 | 14 | 249 | 0.0 | 0.0 | 0.00 | 0.00 | 0.00 | 92 | 1014.9 |
| 20260901020751 | 14 | 249 | 0.0 | 0.0 | 0.00 | 0.00 | 0.00 | 92 | 1014.9 |
| 20260901020237 | 14 | 249 | 0.0 | 0.0 | 0.00 | 0.00 | 0.00 | 92 | 1014.9 |
| 20260901020006 | 14 | 249 | 0.0 | 0.0 | 0.00 | 0.00 | 0.00 | 92 | 1014.4 |
| 20260901015722 | 15 | 249 | 0.0 | 3.2 | 0.00 | 0.00 | 0.00 | 91 | 1014.9 |
| 20260901015206 | 15 | 249 | 0.0 | 3.2 | 0.00 | 0.00 | 0.00 | 91 | 1014.9 |
| 20260901014652 | 15 | 249 | 1.6 | 3.2 | 0.00 | 0.00 | 0.00 | 91 | 1014.9 |
| 20260901014524 | 15 | 249 | 0.0 | 3.2 | 0.00 | 0.00 | 0.00 | 90 | 1014.4 |
| 20260901014137 | 15 | 249 | 0.0 | 3.2 | 0.00 | 0.00 | 0.00 | 90 | 1014.8 |
| 20260901013624 | 15 | 249 | 0.0 | 0.0 | 0.00 | 0.00 | 0.00 | 89 | 1014.8 |
| 20260901013054 | 15 | 249 | 0.0 | 0.0 | 0.00 | 0.00 | 0.00 | 88 | 1014.4 |
| 20260901012556 | 16 | 249 | 0.0 | 0.0 | 0.00 | 0.00 | 0.00 | 88 | 1014.9 |
| 20260901012043 | 16 | 249 | 0.0 | 3.2 | 0.00 | 0.00 | 0.00 | 87 | 1014.9 |
| 20260901011529 | 16 | 249 | 0.0 | 3.2 | 0.00 | 0.00 | 0.00 | 86 | 1015.0 |
| 20260901011502 | 16 | 249 | 0.0 | 3.2 | 0.00 | 0.00 | 0.00 | 86 | 1014.5 |
| 20260901011012 | 17 | 249 | 1.6 | 6.4 | 0.00 | 0.00 | 0.00 | 86 | 1015.0 |
| 20260901010455 | 17 | 249 | 3.2 | 6.4 | 0.00 | 0.00 | 0.00 | 86 | 1015.0 |
| 20260901010033 | 17 | 244 | 1.6 | 6.4 | 0.00 | 0.00 | 0.00 | 87 | 1014.6 |
| 20260901005943 | 17 | 244 | 4.8 | 6.4 | 0.00 | 0.00 | 0.00 | 87 | 1015.0 |
| 20260901005428 | 17 | 240 | 3.2 | 6.4 | 0.00 | 0.00 | 0.00 | 88 | 1015.0 |
| 20260901004915 | 17 | 241 | 3.2 | 4.8 | 0.00 | 0.00 | 0.00 | 90 | 1015.1 |
| 20260901004542 | 16 | 248 | 1.6 | 4.8 | 0.00 | 0.00 | 0.00 | 91 | 1014.6 |
| 20260901004404 | 17 | 248 | 3.2 | 4.8 | 0.00 | 0.00 | 0.00 | 92 | 1015.0 |
| 20260901003858 | 16 | 248 | 3.2 | 6.4 | 0.00 | 0.00 | 0.00 | 94 | 1015.0 |
| 20260901003348 | 16 | 251 | 1.6 | 6.4 | 0.00 | 0.00 | 0.00 | 96 | 1015.1 |
| 20260901003023 | 16 | 251 | 1.6 | 4.8 | 0.00 | 0.00 | 0.00 | 96 | 1014.6 |
| 20260901002844 | 16 | 254 | 1.6 | 4.8 | 0.00 | 0.00 | 0.00 | 97 | 1015.0 |
| 20260901002340 | 16 | 254 | 1.6 | 4.8 | 0.00 | 0.00 | 0.00 | 97 | 1015.1 |
| 20260901001505 | 15 | 264 | 3.2 | 4.8 | 0.00 | 0.00 | 0.00 | 97 | 1014.8 |
| 20260901001328 | 15 | 281 | 1.6 | 4.8 | 0.00 | 0.00 | 0.00 | 97 | 1015.2 |
| 20260901000823 | 15 | 288 | 1.6 | 4.8 | 0.00 | 0.00 | 0.00 | 97 | 1015.2 |
| 20260901000314 | 15 | 290 | 1.6 | 4.8 | 0.00 | 0.00 | 0.00 | 97 | 1015.2 |
| 20260901000044 | 15 | 290 | 0.0 | 4.8 | 0.00 | 0.00 | 0.00 | 97 | 1014.7 |
| 20260831235801 | 15 | 296 | 0.0 | 4.8 | 0.00 | 0.00 | 0.00 | 97 | 1015.2 |
| 20260831235253 | 15 | 298 | 0.0 | 0.0 | 0.00 | 0.00 | 0.00 | 97 | 1015.2 |
| 20260831234744 | 15 | 298 | 0.0 | 0.0 | 0.00 | 0.00 | 0.00 | 97 | 1015.3 |
| 20260831234516 | 15 | 298 | 0.0 | 0.0 | 0.00 | 0.00 | 0.00 | 97 | 1014.9 |
| 20260831234231 | 15 | 298 | 0.0 | 0.0 | 0.00 | 0.00 | 0.00 | 97 | 1015.4 |
| 20260831233730 | 15 | 298 | 0.0 | 0.0 | 0.00 | 0.00 | 0.00 | 97 | 1015.4 |
| 20260831233218 | 15 | 298 | 0.0 | 0.0 | 0.00 | 0.00 | 0.00 | 97 | 1015.4 |
| 20260831233052 | 15 | 298 | 0.0 | 0.0 | 0.00 | 0.00 | 0.00 | 97 | 1015.0 |
| 20260831232709 | 15 | 298 | 0.0 | 0.0 | 0.00 | 0.00 | 0.00 | 97 | 1015.4 |
| 20260831232159 | 15 | 298 | 0.0 | 0.0 | 0.00 | 0.00 | 0.00 | 97 | 1015.4 |
| 20260831231700 | 15 | 298 | 0.0 | 0.0 | 0.00 | 0.00 | 0.00 | 97 | 1015.4 |
| 20260831231537 | 15 | 298 | 0.0 | 0.0 | 0.00 | 0.00 | 0.00 | 97 | 1015.0 |
| 20260831231155 | 15 | 298 | 0.0 | 1.6 | 0.00 | 0.00 | 0.00 | 97 | 1015.4 |
| 20260831230135 | 15 | 298 | 0.0 | 1.6 | 0.00 | 0.00 | 0.00 | 96 | 1015.6 |
| 20260831230017 | 15 | 298 | 0.0 | 1.6 | 0.00 | 0.00 | 0.00 | 96 | 1015.2 |
| 20260831225631 | 15 | 298 | 0.0 | 1.6 | 0.00 | 0.00 | 0.00 | 96 | 1015.6 |
| 20260831225134 | 15 | 298 | 0.0 | 1.6 | 0.00 | 0.00 | 0.00 | 96 | 1015.6 |
| 20260831224626 | 15 | 298 | 0.0 | 0.0 | 0.00 | 0.00 | 0.00 | 96 | 1015.6 |
| 20260831224116 | 15 | 298 | 0.0 | 1.6 | 0.00 | 0.00 | 0.00 | 96 | 1015.5 |
| 20260831223055 | 15 | 298 | 0.0 | 1.6 | 0.00 | 0.00 | 0.00 | 96 | 1015.6 |
| 20260831223029 | 15 | 298 | 0.0 | 1.6 | 0.00 | 0.00 | 0.00 | 96 | 1015.2 |
| 20260831222545 | 15 | 298 | 0.0 | 1.6 | 0.00 | 0.00 | 0.00 | 96 | 1015.5 |
| 20260831222030 | 15 | 298 | 0.0 | 1.6 | 0.00 | 0.00 | 0.00 | 96 | 1015.6 |
| 20260831221558 | 15 | 298 | 0.0 | 1.6 | 0.00 | 0.00 | 0.00 | 96 | 1015.1 |
| 20260831221522 | 15 | 298 | 0.0 | 1.6 | 0.00 | 0.00 | 0.00 | 96 | 1015.6 |
| 20260831221007 | 15 | 298 | 0.0 | 1.6 | 0.00 | 0.00 | 0.00 | 96 | 1015.5 |
| 20260831220455 | 15 | 298 | 0.0 | 1.6 | 0.00 | 0.00 | 0.00 | 96 | 1015.5 |
| 20260831220030 | 15 | 298 | 0.0 | 1.6 | 0.00 | 0.00 | 0.00 | 96 | 1015.0 |
| 20260831215956 | 15 | 298 | 0.0 | 0.0 | 0.00 | 0.00 | 0.00 | 96 | 1015.5 |
| 20260831214939 | 15 | 298 | 0.0 | 1.6 | 0.00 | 0.00 | 0.00 | 96 | 1015.4 |
| 20260831214506 | 15 | 298 | 0.0 | 0.0 | 0.00 | 0.00 | 0.00 | 95 | 1014.9 |
| 20260831214429 | 15 | 298 | 0.0 | 0.0 | 0.00 | 0.00 | 0.00 | 95 | 1015.3 |
| 20260831213923 | 15 | 298 | 0.0 | 0.0 | 0.00 | 0.00 | 0.00 | 95 | 1015.3 |
| 20260831213411 | 15 | 298 | 0.0 | 3.2 | 0.00 | 0.00 | 0.00 | 95 | 1015.4 |
| 20260831213143 | 15 | 298 | 0.0 | 0.0 | 0.00 | 0.00 | 0.00 | 95 | 1014.9 |
| 20260831212902 | 15 | 298 | 0.0 | 3.2 | 0.00 | 0.00 | 0.00 | 95 | 1015.4 |
| 20260831212340 | 15 | 298 | 0.0 | 3.2 | 0.00 | 0.00 | 0.00 | 95 | 1015.3 |
| 20260831211832 | 15 | 298 | 0.0 | 3.2 | 0.00 | 0.00 | 0.00 | 95 | 1015.2 |
| 20260831211508 | 15 | 298 | 0.0 | 3.2 | 0.00 | 0.00 | 0.00 | 95 | 1014.8 |
| 20260831210822 | 15 | 298 | 0.0 | 1.6 | 0.00 | 0.00 | 0.00 | 95 | 1015.0 |
| 20260831210316 | 15 | 298 | 0.0 | 1.6 | 0.00 | 0.00 | 0.00 | 95 | 1014.9 |
| 20260831210100 | 15 | 298 | 0.0 | 1.6 | 0.00 | 0.00 | 0.00 | 95 | 1014.5 |
| 20260831205811 | 15 | 298 | 0.0 | 1.6 | 0.00 | 0.00 | 0.00 | 95 | 1014.9 |
| 20260831205312 | 15 | 298 | 0.0 | 1.6 | 0.00 | 0.00 | 0.00 | 95 | 1014.9 |
| 20260831204534 | 15 | 298 | 0.0 | 1.6 | 0.00 | 0.00 | 0.00 | 94 | 1014.4 |
| 20260831204255 | 16 | 298 | 0.0 | 3.2 | 0.00 | 0.00 | 0.00 | 94 | 1014.8 |
| 20260831203741 | 16 | 298 | 1.6 | 3.2 | 0.00 | 0.00 | 0.00 | 94 | 1015.0 |
| 20260831203114 | 15 | 298 | 0.0 | 3.2 | 0.00 | 0.00 | 0.00 | 94 | 1014.2 |
| 20260831202712 | 16 | 298 | 0.0 | 1.6 | 0.00 | 0.00 | 0.00 | 94 | 1014.5 |
| 20260831201650 | 16 | 298 | 0.0 | 0.0 | 0.00 | 0.00 | 0.00 | 94 | 1014.5 |
| 20260831201525 | 16 | 298 | 0.0 | 0.0 | 0.00 | 0.00 | 0.00 | 94 | 1014.0 |
| 20260831200616 | 16 | 298 | 0.0 | 1.6 | 0.00 | 0.00 | 0.00 | 93 | 1014.5 |
| 20260831200107 | 16 | 298 | 0.0 | 1.6 | 0.00 | 0.00 | 0.00 | 93 | 1014.5 |
| 20260831200043 | 16 | 298 | 0.0 | 1.6 | 0.00 | 0.00 | 0.00 | 93 | 1014.0 |
| 20260831195035 | 16 | 298 | 0.0 | 0.0 | 0.00 | 0.00 | 0.00 | 92 | 1014.6 |
| 20260831194637 | 16 | 298 | 0.0 | 0.0 | 0.00 | 0.00 | 0.00 | 92 | 1014.0 |
| 20260831194523 | 16 | 298 | 0.0 | 0.0 | 0.00 | 0.00 | 0.00 | 92 | 1014.5 |
| 20260831193031 | 17 | 298 | 0.0 | 3.2 | 0.00 | 0.00 | 0.00 | 92 | 1013.9 |
| 20260831192431 | 17 | 298 | 0.0 | 3.2 | 0.00 | 0.00 | 0.00 | 91 | 1014.4 |
| 20260831191917 | 17 | 298 | 0.0 | 0.0 | 0.00 | 0.00 | 0.00 | 91 | 1014.3 |
| 20260831191544 | 17 | 298 | 0.0 | 0.0 | 0.00 | 0.00 | 0.00 | 91 | 1013.7 |
| 20260831191405 | 17 | 298 | 0.0 | 0.0 | 0.00 | 0.00 | 0.00 | 91 | 1014.3 |
| 20260831190851 | 17 | 298 | 0.0 | 0.0 | 0.00 | 0.00 | 0.00 | 90 | 1014.3 |
| 20260831190344 | 17 | 298 | 0.0 | 0.0 | 0.00 | 0.00 | 0.00 | 90 | 1014.3 |
| 20260831190109 | 17 | 298 | 0.0 | 0.0 | 0.00 | 0.00 | 0.00 | 90 | 1013.7 |
| 20260831185818 | 18 | 298 | 0.0 | 0.0 | 0.00 | 0.00 | 0.00 | 90 | 1014.3 |
| 20260831185306 | 18 | 298 | 0.0 | 0.0 | 0.00 | 0.00 | 0.00 | 89 | 1014.2 |
| 20260831184752 | 18 | 298 | 0.0 | 0.0 | 0.00 | 0.00 | 0.00 | 89 | 1014.2 |
| 20260831184525 | 18 | 298 | 0.0 | 0.0 | 0.00 | 0.00 | 0.00 | 89 | 1013.7 |
| 20260831184242 | 18 | 298 | 0.0 | 0.0 | 0.00 | 0.00 | 0.00 | 88 | 1014.2 |
| 20260831183728 | 18 | 298 | 0.0 | 0.0 | 0.00 | 0.00 | 0.00 | 88 | 1014.2 |
| 20260831183054 | 18 | 298 | 0.0 | 0.0 | 0.00 | 0.00 | 0.00 | 87 | 1013.6 |
| 20260831182659 | 19 | 298 | 0.0 | 0.0 | 0.00 | 0.00 | 0.00 | 86 | 1014.1 |
| 20260831182147 | 19 | 298 | 0.0 | 0.0 | 0.00 | 0.00 | 0.00 | 86 | 1014.1 |
| 20260831181635 | 19 | 298 | 0.0 | 0.0 | 0.00 | 0.00 | 0.00 | 86 | 1014.1 |
| 20260831181508 | 19 | 298 | 0.0 | 0.0 | 0.00 | 0.00 | 0.00 | 85 | 1013.5 |
| 20260831181121 | 20 | 298 | 0.0 | 0.0 | 0.00 | 0.00 | 0.00 | 85 | 1014.0 |
| 20260831180608 | 20 | 298 | 0.0 | 1.6 | 0.00 | 0.00 | 0.00 | 84 | 1014.0 |
| 20260831180033 | 20 | 298 | 0.0 | 1.6 | 0.00 | 0.00 | 0.00 | 83 | 1013.4 |
| 20260831175542 | 20 | 298 | 0.0 | 3.2 | 0.00 | 0.00 | 0.00 | 82 | 1013.9 |
| 20260831175018 | 21 | 298 | 0.0 | 3.2 | 0.00 | 0.00 | 0.00 | 81 | 1013.7 |
| 20260831174548 | 21 | 298 | 0.0 | 3.2 | 0.00 | 0.00 | 0.00 | 80 | 1013.1 |
| 20260831174508 | 21 | 298 | 0.0 | 3.2 | 0.00 | 0.00 | 0.00 | 80 | 1013.6 |
| 20260831173952 | 21 | 298 | 0.0 | 1.6 | 0.00 | 0.00 | 0.00 | 79 | 1013.6 |
| 20260831173438 | 22 | 298 | 0.0 | 3.2 | 0.00 | 0.00 | 0.00 | 77 | 1013.5 |
| 20260831173006 | 22 | 298 | 0.0 | 3.2 | 0.00 | 0.00 | 0.00 | 76 | 1012.9 |
| 20260831172923 | 22 | 298 | 0.0 | 4.8 | 0.00 | 0.00 | 0.00 | 76 | 1013.4 |
| 20260831172415 | 22 | 298 | 0.0 | 4.8 | 0.00 | 0.00 | 0.00 | 76 | 1013.3 |
| 20260831171917 | 22 | 298 | 1.6 | 8.0 | 0.00 | 0.00 | 0.00 | 76 | 1013.3 |
| 20260831171541 | 22 | 298 | 0.0 | 8.0 | 0.00 | 0.00 | 0.00 | 75 | 1012.7 |
| 20260831170845 | 23 | 322 | 1.6 | 9.7 | 0.00 | 0.00 | 0.00 | 75 | 1013.2 |
| 20260831170331 | 23 | 306 | 1.6 | 9.7 | 0.00 | 0.00 | 0.00 | 74 | 1013.2 |
| 20260831165818 | 23 | 309 | 3.2 | 9.7 | 0.00 | 0.00 | 0.00 | 73 | 1013.2 |
| 20260831165305 | 23 | 326 | 4.8 | 14.5 | 0.00 | 0.00 | 0.00 | 72 | 1013.1 |
| 20260831164521 | 23 | 319 | 6.4 | 14.5 | 0.00 | 0.00 | 0.00 | 71 | 1012.5 |
| 20260831163718 | 24 | 310 | 3.2 | 6.4 | 0.00 | 0.00 | 0.00 | 70 | 1013.0 |
| 20260831163158 | 24 | 315 | 3.2 | 8.0 | 0.00 | 0.00 | 0.00 | 69 | 1013.0 |
| 20260831163030 | 24 | 315 | 1.6 | 8.0 | 0.00 | 0.00 | 0.00 | 69 | 1012.5 |
| 20260831162642 | 25 | 312 | 1.6 | 6.4 | 0.00 | 0.00 | 0.00 | 69 | 1012.9 |
| 20260831161616 | 25 | 313 | 1.6 | 4.8 | 0.00 | 0.00 | 0.00 | 68 | 1012.9 |
| 20260831161552 | 25 | 313 | 0.0 | 4.8 | 0.00 | 0.00 | 0.00 | 68 | 1012.4 |
| 20260831161101 | 25 | 313 | 1.6 | 4.8 | 0.00 | 0.00 | 0.00 | 68 | 1012.8 |
| 20260831160031 | 25 | 315 | 1.6 | 8.0 | 0.00 | 0.00 | 0.00 | 67 | 1012.8 |
| 20260831160006 | 25 | 313 | 1.6 | 8.0 | 0.00 | 0.00 | 0.00 | 68 | 1012.4 |
| 20260831155519 | 25 | 315 | 1.6 | 4.8 | 0.00 | 0.00 | 0.00 | 68 | 1012.8 |
| 20260831154532 | 25 | 317 | 1.6 | 6.4 | 0.00 | 0.00 | 0.00 | 68 | 1012.3 |
| 20260831154449 | 25 | 317 | 3.2 | 6.4 | 0.00 | 0.00 | 0.00 | 67 | 1012.9 |
| 20260831153934 | 25 | 322 | 3.2 | 6.4 | 0.00 | 0.00 | 0.00 | 67 | 1012.9 |
| 20260831153419 | 25 | 309 | 1.6 | 4.8 | 0.00 | 0.00 | 0.00 | 67 | 1012.9 |
| 20260831153148 | 25 | 309 | 1.6 | 4.8 | 0.00 | 0.00 | 0.00 | 68 | 1012.4 |
| 20260831152908 | 25 | 309 | 1.6 | 4.8 | 0.00 | 0.00 | 0.00 | 67 | 1012.9 |
| 20260831152352 | 25 | 309 | 1.6 | 8.0 | 0.00 | 0.00 | 0.00 | 66 | 1012.9 |
| 20260831151838 | 26 | 309 | 3.2 | 8.0 | 0.00 | 0.00 | 0.00 | 66 | 1012.9 |
| 20260831151510 | 25 | 309 | 1.6 | 9.7 | 0.00 | 0.00 | 0.00 | 64 | 1012.4 |
| 20260831150842 | 26 | 329 | 3.2 | 8.0 | 0.00 | 0.00 | 0.00 | 64 | 1012.9 |
| 20260831150321 | 26 | 331 | 3.2 | 6.4 | 0.00 | 0.00 | 0.00 | 65 | 1012.9 |
| 20260831150153 | 26 | 331 | 1.6 | 8.0 | 0.00 | 0.00 | 0.00 | 65 | 1012.5 |
| 20260831145808 | 26 | 261 | 3.2 | 12.9 | 0.00 | 0.00 | 0.00 | 65 | 1013.0 |
| 20260831145257 | 26 | 325 | 3.2 | 9.7 | 0.00 | 0.00 | 0.00 | 65 | 1013.0 |
| 20260831144744 | 26 | 302 | 3.2 | 12.9 | 0.00 | 0.00 | 0.00 | 66 | 1013.0 |
| 20260831144514 | 25 | 312 | 1.6 | 12.9 | 0.00 | 0.00 | 0.00 | 65 | 1012.5 |
| 20260831144250 | 26 | 317 | 3.2 | 12.9 | 0.00 | 0.00 | 0.00 | 66 | 1013.0 |